EW8567 Weather Reports


Display with metric or nautical units.
time (UTC)temp
F
wind
direction
speed
MPH
gust
MPH
rain 1hr
in
rain 24hr
in
rain mn
in
humidity
%
barometer
mb
20260504025008 47 90 3.0 7.0 0.00 0.25 0.25 94 1009.5
20260504024503 47 85 3.0 7.0 0.00 0.25 0.25 94 1009.5
20260504024007 47 83 3.0 7.0 0.00 0.25 0.25 94 1009.5
20260504023504 47 84 3.0 8.0 0.00 0.25 0.25 94 1009.5
20260504023007 47 81 3.0 8.0 0.00 0.25 0.25 94 1009.5
20260504022503 47 77 3.0 8.0 0.01 0.25 0.25 94 1009.6
20260504022007 47 82 3.0 7.0 0.01 0.25 0.25 94 1009.9
20260504021504 47 84 3.0 7.0 0.02 0.25 0.25 94 1009.8
20260504021007 46 83 3.0 6.0 0.04 0.25 0.25 94 1009.9
20260504020503 47 79 3.0 6.0 0.05 0.25 0.25 94 1010.1
20260504020008 46 75 3.0 6.0 0.05 0.25 0.25 94 1010.1
20260504015503 47 76 3.0 7.0 0.06 0.25 0.25 94 1010.2
20260504015007 47 77 3.0 7.0 0.07 0.25 0.25 94 1010.4
20260504014504 47 86 2.0 4.0 0.08 0.25 0.25 94 1010.5
20260504014007 46 90 2.0 6.0 0.08 0.25 0.25 94 1010.6
20260504013503 46 82 1.0 6.0 0.09 0.25 0.25 94 1010.7
20260504013007 46 83 2.0 7.0 0.08 0.24 0.24 94 1010.8
20260504012504 46 84 2.0 7.0 0.09 0.24 0.24 93 1011.0
20260504012007 46 75 2.0 4.0 0.09 0.24 0.24 93 1011.1
20260504011503 46 89 1.0 4.0 0.08 0.21 0.21 93 1011.3
20260504011007 46 115 1.0 4.0 0.08 0.21 0.21 93 1011.3
20260504010504 46 111 1.0 2.0 0.07 0.20 0.20 93 1011.5
20260504010007 46 114 1.0 2.0 0.07 0.20 0.20 93 1011.7
20260504005503 46 120 1.0 4.0 0.06 0.19 0.19 93 1011.8
20260504005007 46 117 1.0 4.0 0.05 0.18 0.18 93 1011.8
20260504004504 46 94 1.0 4.0 0.04 0.17 0.17 93 1011.8
20260504004007 46 78 1.0 4.0 0.04 0.17 0.17 93 1011.8
20260504003503 45 90 1.0 4.0 0.04 0.15 0.15 93 1011.8
20260504003007 45 93 1.0 4.0 0.04 0.15 0.15 93 1011.8
20260504002503 45 102 1.0 4.0 0.04 0.14 0.14 93 1011.8
20260504002007 45 108 1.0 4.0 0.04 0.14 0.14 93 1011.9
20260504001504 45 100 1.0 4.0 0.04 0.13 0.13 93 1012.0
20260504001007 45 90 1.0 4.0 0.04 0.13 0.13 93 1011.9
20260504000503 45 87 2.0 4.0 0.04 0.13 0.13 93 1012.0
20260504000007 45 91 1.0 4.0 0.04 0.13 0.13 93 1012.1
20260503235504 45 94 1.0 6.0 0.04 0.13 0.13 93 1012.2
20260503235006 45 90 2.0 6.0 0.05 0.13 0.13 93 1012.2
20260503234504 45 78 1.0 6.0 0.05 0.13 0.13 93 1012.1
20260503234007 45 84 2.0 7.0 0.05 0.13 0.13 92 1012.2
20260503233503 45 90 3.0 7.0 0.05 0.12 0.12 92 1012.3
20260503233008 45 90 3.0 7.0 0.05 0.12 0.12 92 1012.3
20260503232503 45 85 2.0 6.0 0.04 0.11 0.11 92 1012.7
20260503232007 45 87 2.0 4.0 0.04 0.11 0.11 92 1012.8
20260503231503 45 83 2.0 4.0 0.02 0.09 0.09 92 1012.9
20260503231007 45 83 1.0 4.0 0.02 0.09 0.09 92 1013.1
20260503230504 45 86 1.0 4.0 0.02 0.09 0.09 92 1013.3
20260503230007 45 79 1.0 4.0 0.02 0.09 0.09 92 1013.2
20260503225503 45 76 2.0 7.0 0.02 0.09 0.09 92 1013.1
20260503225007 45 83 4.0 8.0 0.01 0.08 0.08 92 1013.1
20260503224504 45 90 5.0 8.0 0.01 0.08 0.08 92 1013.0
20260503224008 45 87 4.0 8.0 0.01 0.08 0.08 92 1013.1
20260503223503 46 84 4.0 7.0 0.00 0.07 0.07 91 1013.5
20260503223007 46 82 3.0 7.0 0.00 0.07 0.07 91 1013.5
20260503222504 46 70 2.0 4.0 0.00 0.07 0.07 90 1013.6
20260503222007 46 62 2.0 4.0 0.00 0.07 0.07 90 1013.8
20260503221504 46 67 1.0 4.0 0.00 0.07 0.07 90 1013.9
20260503221006 46 68 1.0 4.0 0.00 0.07 0.07 90 1014.0
20260503220504 46 72 1.0 2.0 0.00 0.07 0.07 91 1014.1
20260503220007 46 82 0.0 2.0 0.00 0.07 0.07 91 1014.1
20260503215503 46 90 0.0 2.0 0.00 0.07 0.07 91 1014.2
20260503215008 46 88 1.0 2.0 0.00 0.07 0.07 91 1014.1
20260503214503 46 80 1.0 2.0 0.00 0.07 0.07 91 1014.3
20260503214007 46 69 1.0 4.0 0.00 0.07 0.07 91 1014.2
20260503213503 46 80 1.0 4.0 0.00 0.07 0.07 91 1014.4
20260503213007 46 92 2.0 4.0 0.00 0.07 0.07 91 1014.4
20260503212503 46 101 1.0 2.0 0.00 0.07 0.07 91 1014.3
20260503212007 46 112 0.0 2.0 0.00 0.07 0.07 92 1014.6
20260503211504 46 111 0.0 2.0 0.00 0.07 0.07 91 1015.0
20260503211007 46 111 0.0 2.0 0.00 0.07 0.07 91 1015.0
20260503210503 46 112 0.0 2.0 0.00 0.07 0.07 91 1015.0
20260503210008 45 115 0.0 2.0 0.00 0.07 0.07 91 1015.1
20260503205503 46 126 0.0 2.0 0.01 0.07 0.07 91 1014.9
20260503205007 46 135 0.0 2.0 0.01 0.07 0.07 91 1015.1
20260503204504 46 135 0.0 2.0 0.02 0.07 0.07 91 1015.1
20260503204007 46 135 0.0 2.0 0.05 0.07 0.07 90 1015.1
20260503203504 46 136 0.0 2.0 0.06 0.07 0.07 90 1015.1
20260503203007 46 143 0.0 2.0 0.06 0.07 0.07 90 1015.3
20260503202504 46 158 0.0 2.0 0.06 0.07 0.07 90 1015.3
20260503202007 46 167 0.0 2.0 0.06 0.07 0.07 90 1015.4
20260503201504 46 186 0.0 2.0 0.06 0.07 0.07 90 1015.4
20260503201008 46 181 0.0 2.0 0.06 0.07 0.07 89 1015.6
20260503200503 46 188 0.0 2.0 0.06 0.07 0.07 89 1015.6
20260503200010 46 195 1.0 2.0 0.07 0.07 0.07 88 1015.7
20260503195506 46 196 1.0 2.0 0.06 0.06 0.06 88 1015.8
20260503195009 46 194 0.0 2.0 0.06 0.06 0.06 87 1015.8
20260503194506 46 203 1.0 2.0 0.05 0.05 0.05 86 1015.6
20260503194009 46 206 1.0 4.0 0.02 0.02 0.02 85 1015.8
20260503193506 46 207 1.0 4.0 0.01 0.01 0.01 85 1015.9
20260503193009 46 207 2.0 4.0 0.01 0.01 0.01 85 1016.1
20260503192506 46 206 2.0 4.0 0.01 0.01 0.01 85 1016.1
20260503192010 47 200 1.0 4.0 0.01 0.01 0.01 84 1016.1
20260503191505 47 194 2.0 4.0 0.01 0.01 0.01 83 1016.2
20260503191009 47 197 2.0 4.0 0.01 0.01 0.01 83 1016.1
20260503190506 47 196 2.0 4.0 0.01 0.01 0.01 82 1016.1
20260503190010 47 196 1.0 4.0 0.00 0.00 0.00 81 1016.1
20260503185506 47 194 1.0 2.0 0.00 0.00 0.00 79 1016.0
20260503185009 48 183 1.0 2.0 0.00 0.00 0.00 78 1015.9
20260503184506 48 190 1.0 4.0 0.00 0.00 0.00 78 1015.9
20260503184009 48 199 1.0 4.0 0.00 0.00 0.00 77 1015.9
20260503183506 48 201 2.0 4.0 0.00 0.00 0.00 77 1016.1
20260503183009 48 204 2.0 4.0 0.00 0.00 0.00 77 1016.0
20260503182506 48 202 2.0 4.0 0.00 0.00 0.00 76 1016.0
20260503182009 48 190 2.0 4.0 0.00 0.00 0.00 76 1016.0
20260503181506 48 196 3.0 7.0 0.00 0.00 0.00 76 1016.0
20260503181009 48 206 2.0 7.0 0.00 0.00 0.00 76 1016.1
20260503180506 48 187 2.0 4.0 0.00 0.00 0.00 76 1016.1
20260503180009 48 170 1.0 4.0 0.00 0.00 0.00 76 1016.1
20260503175505 48 175 1.0 4.0 0.00 0.00 0.00 76 1016.1
20260503175009 48 185 1.0 4.0 0.00 0.00 0.00 76 1016.0
20260503174506 48 186 1.0 4.0 0.00 0.00 0.00 76 1016.3
20260503174009 47 173 1.0 2.0 0.00 0.00 0.00 76 1016.3
20260503173506 47 172 1.0 2.0 0.00 0.00 0.00 76 1016.4
20260503173009 48 170 1.0 4.0 0.00 0.00 0.00 76 1016.6
20260503172505 48 191 2.0 6.0 0.00 0.00 0.00 75 1016.4
20260503172009 48 194 2.0 6.0 0.00 0.00 0.00 75 1016.5
20260503171506 48 194 1.0 4.0 0.00 0.00 0.00 75 1016.6
20260503171009 48 197 1.0 4.0 0.00 0.00 0.00 75 1016.5
20260503170506 48 193 2.0 4.0 0.00 0.00 0.00 74 1016.6
20260503151010 53 218 2.0 6.0 0.00 0.00 0.00 58 1016.5
20260503150505 53 217 1.0 4.0 0.00 0.00 0.00 57 1016.5
20260503131009 56 210 5.0 11.0 0.00 0.00 0.00 44 1017.3
20260503130505 57 227 6.0 13.0 0.00 0.00 0.00 45 1017.3
20260503110505 61 221 4.0 11.0 0.00 0.00 0.00 34 1018.2